Regional Weather Roundup
Issued by NWS

Home | Current Version | Previous Version | Graphics & Text | Print | Product List | Glossary On
Versions: 1 2 3 4 5 6 7 8 9 10 11 12 13 14 15 16 17 18 19 20 21 22 23 24 25 26 27 28 29 30 31 32 33 34 35 36 37 38 39 40 41 42 43 44 45 46 47 48 49 50
768
ASUS45 KTFX 222010
RWRMT
MONTANA REGIONAL WEATHER ROUNDUP
NATIONAL WEATHER SERVICE GREAT FALLS MT
200 PM MDT SAT JUL 22 2017

NOTE: "FAIR" INDICATES FEW OR NO CLOUDS BELOW 12000 FEET WITH NO
SIGNIFICANT WEATHER AND/OR OBSTRUCTIONS TO VISIBILITY.

MTZ001>007-043-222100-
WEST OF THE DIVIDE

CITY           SKY/WX    TMP DP  RH WIND       PRES   REMARKS
KALISPELL      SUNNY     82  42  24 S12       30.15F
MISSOULA       SUNNY     83  35  18 N5        30.17F
BUTTE          SUNNY     79  21  11 VRB5      30.27F
MULLAN PASS    SUNNY     68  39  34 N5        30.35S
ANACONDA         N/A     75  34  22 N8        30.24F
DEER LODGE       N/A     77  34  20 NW7       30.26F
EUREKA           N/A     82  39  21 MISG      30.11F
HAMILTON         N/A     79  34  19 N7        30.20F
LIBBY            N/A     84  39  20 SW7       30.12F
PLAINS           N/A     85  45  24 CALM      30.14F
$$

MTZ008-052>055-222100-
SOUTHWEST MONTANA

CITY           SKY/WX    TMP DP  RH WIND       PRES   REMARKS
BOZEMAN        SUNNY     84  35  17 N8        30.20F
DILLON         SUNNY     83  31  15 VRB3      30.23F
W YELLOWSTONE  SUNNY     79  27  14 W12       30.31F
ENNIS          SUNNY     82  27  13 VRB5      30.28F
THREE FORKS      N/A     84  27  12 SE3       30.16F
TWIN BRIDGES     N/A     82  31  16 CALM      30.19F
$$

MTZ009-010-012-014-046-048-049-054-222100-
EAST SLOPES AND CENTRAL MONTANA

CITY           SKY/WX    TMP DP  RH WIND       PRES   REMARKS
CUT BANK       MOSUNNY   82  40  22 NW8G18    30.11F
GREAT FALLS    SUNNY     85  31  14 NW12G18   30.13F
HELENA         SUNNY     87  33  14 NW12G23   30.15F
CHOTEAU          N/A     82  36  18 VRB5      30.15F
$$

MTZ011-013-016-021-045-047-050-051-222100-
NORTH CENTRAL MONTANA

CITY           SKY/WX    TMP DP  RH WIND       PRES   REMARKS
HAVRE          SUNNY     85  39  19 W9        30.07F
LEWISTOWN      SUNNY     81  34  18 W7        30.15F
N BAR RANCH      N/A     81  32  17 VRB6G16   30.18F
CHINOOK          N/A     82  43  24 CALM      30.06F
$$

MTZ017>020-022>027-061-062-222100-
NORTHEAST MONTANA

CITY           SKY/WX    TMP DP  RH WIND       PRES   REMARKS
GLASGOW        SUNNY     83  46  27 W13G26    30.05F
JORDAN           N/A     86  38  18 W14       30.07F
SIDNEY         SUNNY     83  47  28 NW17G29   30.02S
WOLF POINT     SUNNY     87  45  23 W17G30    30.04S
MALTA          SUNNY     84  41  21 W10G23    30.05F
PLENTYWOOD       N/A     77  46  33 NW12G20   30.03S
POPLAR           N/A     81  48  32 NW10G22   30.03S
$$

MTZ028>42-056>058-222100-
SOUTHCENTRAL AND SOUTHEAST MONTANA

CITY           SKY/WX    TMP DP  RH WIND       PRES   REMARKS
BAKER          SUNNY     87  38  17 NW18G30   30.08F
BILLINGS       MOSUNNY   84  27  12 S5        30.12F
LIVINGSTON     SUNNY     88  27  11 NW8G20    30.17F
MILES CITY     SUNNY     88  35  15 W9G16     30.06F
BIG TIMBER     SUNNY     86  28  12 W18G24    30.18F
FORSYTH          N/A     84  36  17 CALM      30.07F
LAUREL           N/A     85  34  16 E2        30.11F
$$

REGIONAL REPORTS...DAKOTAS

CITY           SKY/WX    TMP DP  RH WIND       PRES   REMARKS
WILLISTON      SUNNY     83  48  29 NW10G29   30.01S
MINOT          MOSUNNY   81  49  32 NW17G26   29.94R
DICKINSON      SUNNY     85  45  24 NW21G36   30.01R
BEACH            N/A     82  39  21 NW24G32   30.08F
CROSBY           N/A     77  50  38 NW16G25   30.01R
TIOGA            N/A     77  46  33 NW21      30.01S
WATFORD CITY     N/A     81  48  32 NW16G31   30.00S
BISMARCK       SUNNY     89  49  25 NW16G29   29.93S
GRAND FORKS    SUNNY     82  56  40 W17G24    29.83S
FARGO          SUNNY     85  57  38 NW17      29.86R
BUFFALO SD       N/A     87  39  18 W21       30.01F
RAPID CITY     SUNNY     89  39  17 N10       30.07S
$$

REGIONAL REPORTS...WYOMING/IDAHO/WASHINGTON

CITY           SKY/WX    TMP DP  RH WIND       PRES   REMARKS
GILLETTE       SUNNY     88  26  10 CALM      30.15F
SHERIDAN       SUNNY     88  32  13 NE6       30.15F
BUFFALO WY     SUNNY     83  28  13 CALM      30.21F
CODY           SUNNY     81  36  19 N7        30.20F
YELLOWSTONE LA   N/A     70  40  33 VRB5      30.41F
IDAHO FALLS    SUNNY     83  45  26 NW5       30.21F
BOISE          SUNNY     91  40  16 NW14      30.10F
SPOKANE        MOSUNNY   82  43  25 SW7       30.17F
$$

REGIONAL REPORTS...ALBERTA

CITY           SKY/WX    TMP DP  RH WIND       PRES   REMARKS
EDMONTON       SUNNY     75  55  50 W7        29.98F
CALGARY        MOSUNNY   77  43  29 SW6G17    30.05S
LETHBRIDGE     PTSUNNY   84  43  23 W15G24    30.04F
MEDICINE HAT   PTSUNNY   81  46  30 CALM      30.03F
WATERTON GATE    N/A     79  45  29 SW17G24     N/A
CARDSTON         N/A     81  45  28 W10G20      N/A
MILK RIVER       N/A     82  45  26 W17G25      N/A
$$

REGIONAL REPORTS...SASKATCHEWAN

CITY           SKY/WX    TMP DP  RH WIND       PRES   REMARKS
SWIFT CURRENT  SUNNY     75  50  41 NW12G20   30.06S
REGINA         MOSUNNY   77  52  41 NW17G25   30.01S
SASKATOON      MOSUNNY   72  57  60 NW3       30.02S
VAL MARIE        N/A     81  46  30 NW14G21     N/A
ROCKGLEN         N/A     73  48  40 N13G21      N/A
ASSINIBOIA       N/A     77  54  44 SW9         N/A
$$




USA.gov is the U.S. government's official web portal to all federal, state and local government web resources and services.